Regional Weather Roundup
Issued by NWS

Home | Current Version | Previous Version | Graphics & Text | Print | Product List | Glossary On
Versions: 1 2 3 4 5 6 7 8 9 10 11 12 13 14 15 16 17 18 19 20 21 22 23 24 25 26 27 28 29 30 31 32 33 34 35 36 37 38 39 40 41 42 43 44 45 46 47 48 49 50
000
ASUS43 KIND 240259
RWRIN

WEATHER ROUNDUP FOR INDIANA
NATIONAL WEATHER SERVICE INDIANAPOLIS IN
1100 PM EDT MON APR 23 2018

NOTE: "FAIR" INDICATES FEW OR NO CLOUDS BELOW 12,000 FEET WITH NO
SIGNIFICANT WEATHER AND/OR OBSTRUCTIONS TO VISIBILITY.

* - STATION DOES NOT REPORT WEATHER SUCH AS PRECIPITATION OR FOG.

+ - STATION NOT QUALITY CONTROLLED BY THE NATIONAL WEATHER SERVICE.
    USE DATA WITH CAUTION...ESPECIALLY DEWPOINT AND RELATIVE
    HUMIDITY OBSERVATIONS.

INZ001>003-010>013-019-020-240400-
NORTHWEST INDIANA

CITY           SKY/WX    TMP DP  RH WIND       PRES   REMARKS
GARY /AIRPORT/ LGT RAIN  46  36  66 VRB5      30.12S
KNOX *+        CLOUDY    54  52  94 E8        30.10F
MONTICELLO +   CLOUDY    54  52  94 E10G17    30.07S
VALPARAISO     LGT RAIN  55  52  88 E8        30.11S FOG

$$

LMZ046-743>745-240400-
SOUTHERN LAKE MICHIGAN

STATION/POSITION TIME  TEMP    WIND        PRES    WAVE
                       AIR SEA DIR/SP/G            HT
                 (UTC) (F)     (DEG/KT/KT) (MB)    (FT)
BURNS HARBOR     0240   44      CALM  /  3 1020.3S
MICHIGAN CITY    0230   45      50/  4/  4   N/A

$$

INZ004-005-014>016-021>024-240400-
NORTH CENTRAL INDIANA

CITY           SKY/WX    TMP DP  RH WIND       PRES   REMARKS
GOSHEN         CLOUDY    56  47  71 SE9       30.13S
PERU/GRISSOM   CLOUDY    53  53 100 E8        30.08S
ROCHESTER +    CLOUDY    54  52  94 E10       30.11F
SOUTH BEND     CLOUDY    57  50  77 SE9       30.13S
WARSAW +       LGT RAIN  52  50  93 SE10G16   30.13S

$$

INZ006>009-017-018-025>027-240400-
NORTHEAST INDIANA

CITY           SKY/WX    TMP DP  RH WIND       PRES   REMARKS
ANGOLA *+      CLOUDY    54  46  76 SE8       30.15S
FORT WAYNE     LGT RAIN  52  50  93 E9        30.14F

$$

INZ028-029-035-036-043>045-051>053-240400-
WEST CENTRAL INDIANA

CITY           SKY/WX    TMP DP  RH WIND       PRES   REMARKS
GREENCASTLE +  CLOUDY    54  50  87 E9        30.03S
LAFAYETTE      CLOUDY    54  52  93 E12       30.06S
TERRE HAUTE    MOCLDY    54  53  97 E7        30.01R

$$

INZ030>032-037>040-046>048-054>057-064-065-240400-
CENTRAL INDIANA

CITY           SKY/WX    TMP DP  RH WIND       PRES   REMARKS
GREENWOOD *+   CLOUDY    53  50  89 E9        30.05S
INDIANAPOLIS   CLOUDY    54  50  86 E14       30.04S
-EAGLE CREEK   CLOUDY    54  49  83 E8        30.04F
KOKOMO +       CLOUDY    52  49  89 E10       30.09S
MT COMFORT *+  CLOUDY    52  52 100 E14       30.06S
SHELBYVILLE    LGT RAIN  55  49  80 E13       30.04S
ZIONSVILLE +   CLOUDY    52  50  92 E9        30.06F

$$

INZ033-034-041-042-049-050-058-059-240400-
EAST CENTRAL INDIANA

CITY           SKY/WX    TMP DP  RH WIND       PRES   REMARKS
MUNCIE         LGT RAIN  53  49  86 E13       30.08F
RICHMOND +     CLOUDY    50  50 100 E15G22    30.08F

$$

INZ060-061-067>069-081>083-085>088-240400-
SOUTHWEST INDIANA

CITY           SKY/WX    TMP DP  RH WIND       PRES   REMARKS
EVANSVILLE     CLOUDY    56  55  97 N3        29.96S
HUNTINGBURG +  MOCLDY    59  53  80 E10       29.96S

$$

INZ062-063-066-070>080-084-089>092-240400-
SOUTH CENTRAL AND SOUTHEAST INDIANA

CITY           SKY/WX    TMP DP  RH WIND       PRES   REMARKS
BLOOMINGTON    CLOUDY    55  51  86 E10       30.01S
SEYMOUR +      CLOUDY    57  50  77 E9        30.02S

$$





USA.gov is the U.S. government's official web portal to all federal, state and local government web resources and services.